This is the latest recevied weather packets stored in our database for station/object PY2RMF-10. If no packets are shown the sender has not sent any weather packets the latest 10 day(s).
| Time | Temp. | Humidity | Pressure | Rain* | Wind** | Luminosity | Snow |
|---|---|---|---|---|---|---|---|
| 1778136511 | 20.56° C | 96% | 1005 hPa | - | - | - | - |
| 1778134711 | 20.56° C | 100% | 1005 hPa | - | - | - | - |
| 1778132911 | 21.11° C | 88% | 1005 hPa | - | - | - | - |
| 1778131112 | 21.11° C | 95% | 1005 hPa | - | - | - | - |
| 1778129312 | 21.11° C | 100% | 1005 hPa | - | - | - | - |
| 1778127511 | 21.67° C | 91% | 1005 hPa | - | - | - | - |
| 1778125711 | 22.22° C | 89% | 1005 hPa | - | - | - | - |
| 1778123911 | 22.22° C | 91% | 1005 hPa | - | - | - | - |
| 1778122111 | 22.22° C | 92% | 1006 hPa | - | - | - | - |
| 1778120312 | 22.22° C | 92% | 1006 hPa | - | - | - | - |
| 1778118511 | 22.78° C | 92% | 1006 hPa | - | - | - | - |
| 1778116711 | 22.78° C | 91% | 1006 hPa | - | - | - | - |
| 1778114911 | 22.78° C | 86% | 1006 hPa | - | - | - | - |
| 1778113115 | 23.33° C | 78% | 1006 hPa | - | - | - | - |
| 1778111311 | 23.33° C | 64% | 1006 hPa | - | - | - | - |
| 1778109512 | 23.33° C | 62% | 1006 hPa | - | - | - | - |
| 1778107711 | 23.89° C | 63% | 1006 hPa | - | - | - | - |
| 1778105911 | 23.89° C | 66% | 1006 hPa | - | - | - | - |
| 1778104111 | 24.44° C | 61% | 1006 hPa | - | - | - | - |
| 1778102311 | 25° C | 54% | 1006 hPa | - | - | - | - |
| 1778100512 | 26.11° C | 49% | 1006 hPa | - | - | - | - |
| 1778098711 | 27.22° C | 47% | 1005 hPa | - | - | - | - |
| 1778096911 | 29.44° C | 41% | 1005 hPa | - | - | - | - |
| 1778095111 | 31.67° C | 39% | 1005 hPa | - | - | - | - |
| 1778093311 | 32.78° C | 36% | 1005 hPa | - | - | - | - |
* Rain since midnight (hover to see other rain measurements)
** Current wind speed in m/s (hover to see current wind gust speed)